Location: Waco, TX
(31.5480°N, 97.1670°W)
Time: 22:56:04
(UTC-05:00)

ISS - Pass Details

Date: 21 April 2018
Orbit: 403 x 406 km, 51.6° (Epoch: 23 April)

Event Time Altitude Azimuth Distance (km) Brightness Sun altitude
Rises 17:59:47 0° 304° (NW) 2,322 0.9 24.8°
Reaches altitude 10° 18:02:00 10° 294° (WNW) 1,460 0.3 24.4°
Maximum altitude 18:04:55 30° 230° (SW) 746 -1.4 23.8°
Drops below altitude 10° 18:07:51 10° 167° (SSE) 1,453 -1.1 23.1°
Sets 18:10:03 0° 156° (SSE) 2,309 -0.2 22.7°
